Worthington, MN

10:42 AM CDT on May 26, 2017 (GMT -0500)
Worthington Municipal

Weather History for KOTG - October, 2013

Change the Weather History Date:

Tuesday, October 8, 2013

  Actual Average Record
Temperature  
Mean Temperature 62 °F -  
Max Temperature 73 °F 61 °F 87 °F (2010)
Min Temperature 51 °F 40 °F 17 °F (2000)
Degree Days  
Heating Degree Days 3    
Growing Degree Days 12 (Base 50)    
Moisture  
Dew Point 39 °F    
Average Humidity 44    
Maximum Humidity 58    
Minimum Humidity 31    
Precipitation  
Precipitation 0.00 in - - ()
Sea Level Pressure  
Sea Level Pressure 29.87 in    
Wind  
Wind Speed 15 mph (South)    
Max Wind Speed 29 mph    
Max Gust Speed 38 mph    
Visibility 10 miles    
Events      
Averages and records for this station are not official NWS values.
T = Trace of Precipitation, MM = Missing Value Source: NWS Daily Summary

Daily Weather History Graph

Daily Weather History Graph

Search for Another Location

Airport or City:

Trip Planner

Search our weather history database for the weather conditions in past years. The results will help you decide how hot, cold, wet, or windy it might be!

Date:

Astronomy

Oct. 08, 2013 Rise Set
Actual Time 7:28 AM CDT 6:50 PM CDT
Civil Twilight 6:59 AM CDT 7:19 PM CDT
Nautical Twilight 6:26 AM CDT 7:52 PM CDT
Astronomical Twilight 5:53 AM CDT 8:25 PM CDT
Moon 11:30 AM CDT (10/8) 9:20 PM CDT (10/8)
Length of Visible Light 12h 19m
Length of Day
11h 21m
Waxing Crescent, 16% of the Moon is Illuminated
Oct 8
Waxing Crescent
Oct 11
First Quarter
Oct 18
Full
Oct 26
Last Quarter
Nov 3
New

Hourly Weather History & Observations

Time (CDT) Temp. Dew Point Humidity Pressure Visibility Wind Dir Wind Speed Gust Speed Precip Events Conditions
12:15 AM 55.4 °F 39.2 °F 54% 29.94 in 10.0 mi South 11.5 mph - N/A   Clear
12:35 AM 55.4 °F 37.4 °F 51% 29.94 in 10.0 mi South 10.4 mph - N/A   Clear
12:55 AM 55.4 °F 37.4 °F 51% 29.94 in 10.0 mi South 10.4 mph - N/A   Clear
1:15 AM 53.6 °F 37.4 °F 54% 29.94 in 10.0 mi South 9.2 mph - N/A   Clear
1:35 AM 51.8 °F 37.4 °F 58% 29.93 in 10.0 mi South 9.2 mph - N/A   Clear
1:55 AM 51.8 °F 37.4 °F 58% 29.93 in 10.0 mi South 10.4 mph - N/A   Clear
2:15 AM 51.8 °F 37.4 °F 58% 29.93 in 10.0 mi South 10.4 mph - N/A   Clear
2:35 AM 53.6 °F 37.4 °F 54% 29.92 in 10.0 mi South 11.5 mph - N/A   Clear
2:55 AM 53.6 °F 37.4 °F 54% 29.92 in 10.0 mi South 11.5 mph - N/A   Clear
3:15 AM 51.8 °F 37.4 °F 58% 29.92 in 10.0 mi South 11.5 mph - N/A   Clear
3:35 AM 51.8 °F 37.4 °F 58% 29.92 in 10.0 mi South 10.4 mph - N/A   Clear
3:55 AM 53.6 °F 37.4 °F 54% 29.91 in 10.0 mi South 11.5 mph - N/A   Clear
4:15 AM 53.6 °F 37.4 °F 54% 29.91 in 10.0 mi South 12.7 mph - N/A   Clear
4:35 AM 53.6 °F 37.4 °F 54% 29.90 in 10.0 mi South 11.5 mph - N/A   Clear
4:55 AM 51.8 °F 37.4 °F 58% 29.90 in 10.0 mi South 13.8 mph - N/A   Clear
5:15 AM 53.6 °F 35.6 °F 51% 29.90 in 10.0 mi South 12.7 mph - N/A   Clear
5:35 AM 53.6 °F 35.6 °F 51% 29.90 in 10.0 mi South 15.0 mph 19.6 mph N/A   Clear
5:55 AM 53.6 °F 37.4 °F 54% 29.90 in 10.0 mi South 15.0 mph - N/A   Clear
6:15 AM 53.6 °F 35.6 °F 51% 29.90 in 10.0 mi South 15.0 mph 19.6 mph N/A   Clear
6:35 AM 53.6 °F 35.6 °F 51% 29.90 in 10.0 mi South 15.0 mph - N/A   Clear
6:55 AM 53.6 °F 35.6 °F 51% 29.90 in 10.0 mi South 11.5 mph 18.4 mph N/A   Clear
7:15 AM 53.6 °F 35.6 °F 51% 29.90 in 10.0 mi South 13.8 mph - N/A   Clear
7:35 AM 53.6 °F 35.6 °F 51% 29.89 in 10.0 mi South 15.0 mph - N/A   Clear
7:55 AM 53.6 °F 35.6 °F 51% 29.89 in 10.0 mi South 13.8 mph 21.9 mph N/A   Clear
8:15 AM 53.6 °F 35.6 °F 51% 29.89 in 10.0 mi South 15.0 mph 21.9 mph N/A   Clear
8:35 AM 55.4 °F 37.4 °F 51% 29.89 in 10.0 mi South 18.4 mph 24.2 mph N/A   Clear
8:55 AM 57.2 °F 37.4 °F 48% 29.89 in 10.0 mi South 19.6 mph 25.3 mph N/A   Clear
9:15 AM 57.2 °F 37.4 °F 48% 29.89 in 10.0 mi SSW 18.4 mph 26.5 mph N/A   Clear
9:35 AM 59.0 °F 37.4 °F 45% 29.89 in 10.0 mi SSW 19.6 mph 27.6 mph N/A   Clear
9:55 AM 60.8 °F 39.2 °F 45% 29.88 in 10.0 mi SSW 23.0 mph 29.9 mph N/A   Clear
10:15 AM 62.6 °F 39.2 °F 42% 29.88 in 10.0 mi South 24.2 mph 33.4 mph N/A   Clear
10:35 AM 64.4 °F 39.2 °F 40% 29.87 in 10.0 mi South 21.9 mph 28.8 mph N/A   Clear
10:55 AM 64.4 °F 39.2 °F 40% 29.87 in 10.0 mi SSW 23.0 mph 28.8 mph N/A   Clear
11:15 AM 66.2 °F 39.2 °F 37% 29.86 in 10.0 mi South 19.6 mph 32.2 mph N/A   Clear
11:35 AM 68.0 °F 39.2 °F 35% 29.85 in 10.0 mi South 20.7 mph 33.4 mph N/A   Clear
11:55 AM 69.8 °F 41.0 °F 35% 29.85 in 10.0 mi SSW 20.7 mph 34.5 mph N/A   Clear
12:15 PM 71.6 °F 41.0 °F 33% 29.84 in 10.0 mi SSW 24.2 mph 36.8 mph N/A   Clear
12:35 PM 71.6 °F 41.0 °F 33% 29.84 in 10.0 mi South 28.8 mph 38.0 mph N/A   Clear
12:55 PM 71.6 °F 39.2 °F 31% 29.83 in 10.0 mi South 26.5 mph 35.7 mph N/A   Clear
1:15 PM 71.6 °F 41.0 °F 33% 29.84 in 10.0 mi South 19.6 mph 28.8 mph N/A   Clear
1:35 PM 73.4 °F 41.0 °F 31% 29.83 in 10.0 mi South 20.7 mph 35.7 mph N/A   Clear
1:55 PM 71.6 °F 41.0 °F 33% 29.83 in 10.0 mi South 27.6 mph 35.7 mph N/A   Clear
2:15 PM 73.4 °F 41.0 °F 31% 29.82 in 10.0 mi South 21.9 mph 29.9 mph N/A   Clear
2:35 PM 73.4 °F 42.8 °F 33% 29.81 in 10.0 mi South 18.4 mph 31.1 mph N/A   Clear
2:55 PM 73.4 °F 41.0 °F 31% 29.81 in 10.0 mi South 21.9 mph 33.4 mph N/A   Clear
3:15 PM 73.4 °F 41.0 °F 31% 29.81 in 10.0 mi South 21.9 mph 27.6 mph N/A   Clear
3:35 PM 73.4 °F 41.0 °F 31% 29.81 in 10.0 mi South 20.7 mph 32.2 mph N/A   Clear
3:55 PM 73.4 °F 42.8 °F 33% 29.81 in 10.0 mi South 18.4 mph 26.5 mph N/A   Clear
4:15 PM 73.4 °F 41.0 °F 31% 29.81 in 10.0 mi South 20.7 mph 29.9 mph N/A   Clear
4:35 PM 73.4 °F 41.0 °F 31% 29.81 in 10.0 mi South 21.9 mph 29.9 mph N/A   Clear
4:55 PM 73.4 °F 42.8 °F 33% 29.81 in 10.0 mi South 18.4 mph 32.2 mph N/A   Clear
5:15 PM 73.4 °F 42.8 °F 33% 29.81 in 10.0 mi South 18.4 mph 25.3 mph N/A   Clear
5:35 PM 71.6 °F 42.8 °F 35% 29.81 in 10.0 mi South 19.6 mph 28.8 mph N/A   Clear
5:55 PM 71.6 °F 42.8 °F 35% 29.80 in 10.0 mi South 17.3 mph 25.3 mph N/A   Clear
6:15 PM 71.6 °F 41.0 °F 33% 29.81 in 10.0 mi South 18.4 mph 26.5 mph N/A   Clear
6:35 PM 69.8 °F 41.0 °F 35% 29.81 in 10.0 mi South 19.6 mph 28.8 mph N/A   Clear
6:55 PM 69.8 °F 41.0 °F 35% 29.82 in 10.0 mi South 17.3 mph 27.6 mph N/A   Clear
7:15 PM 68.0 °F 41.0 °F 37% 29.83 in 10.0 mi South 15.0 mph 20.7 mph N/A   Clear
7:35 PM 66.2 °F 42.8 °F 43% 29.84 in 10.0 mi South 12.7 mph 20.7 mph N/A   Clear
7:55 PM 66.2 °F 42.8 °F 43% 29.85 in 10.0 mi South 12.7 mph 20.7 mph N/A   Clear
8:15 PM 66.2 °F 42.8 °F 43% 29.86 in 10.0 mi South 10.4 mph - N/A   Clear
8:35 PM 64.4 °F 42.8 °F 45% 29.87 in 10.0 mi SSW 12.7 mph 16.1 mph N/A   Clear
8:55 PM 64.4 °F 41.0 °F 42% 29.88 in 10.0 mi SSW 13.8 mph 18.4 mph N/A   Clear
9:15 PM 64.4 °F 41.0 °F 42% 29.88 in 10.0 mi South 13.8 mph - N/A   Clear
9:35 PM 64.4 °F 41.0 °F 42% 29.89 in 10.0 mi South 12.7 mph 19.6 mph N/A   Clear
9:55 PM 64.4 °F 41.0 °F 42% 29.89 in 10.0 mi South 15.0 mph 19.6 mph N/A   Clear
10:15 PM 64.4 °F 41.0 °F 42% 29.90 in 10.0 mi South 12.7 mph 21.9 mph N/A   Clear
10:35 PM 62.6 °F 41.0 °F 45% 29.90 in 10.0 mi South 16.1 mph 19.6 mph N/A   Clear
10:55 PM 62.6 °F 41.0 °F 45% 29.91 in 10.0 mi South 15.0 mph 23.0 mph N/A   Clear
11:15 PM 62.6 °F 41.0 °F 45% 29.91 in 10.0 mi South 12.7 mph - N/A   Clear
11:35 PM 60.8 °F 41.0 °F 48% 29.91 in 10.0 mi South 15.0 mph 20.7 mph N/A   Clear
11:55 PM 60.8 °F 41.0 °F 48% 29.91 in 10.0 mi South 15.0 mph - N/A   Clear